When you browse on this site, cookies collect data to enhance your experience and personalize the content and advertising you see.
Visit our Privacy Policy to learn more. By continuing to use the site, you agree to this use of cookies and data.
  • In Österreich
  • Länderverzeichnis
  • Für 7 Tage
  • Wassertemperatur
  • Wetterkarte
  • News
  • Widgets
  • user-avatar
    Anmelden

    Stündliche Wetter Mozharovka

    Heute, 19 November, Dienstag

    Zeit Temperatur Niederschläge Wind Luftdruck Luftfeuchtigkeit
    00:00 -2°C° 0.2 mm 4 m/S 748 mmHg 97%
    01:00 -1°C° 0.2 mm 3 m/S 748 mmHg 96%
    02:00 -2°C° 0.9 mm 4 m/S 748 mmHg 97%
    03:00 -2°C° 0.9 mm 4 m/S 748 mmHg 97%
    04:00 -2°C° 0 mm 4 m/S 748 mmHg 97%
    05:00 -4°C° 0.4 mm 5 m/S 748 mmHg 96%
    06:00 -4°C° 0.4 mm 5 m/S 748 mmHg 95%
    07:00 -5°C° 0.4 mm 6 m/S 749 mmHg 94%
    08:00 -6°C° 0.1 mm 6 m/S 749 mmHg 92%
    09:00 -8°C° 0.1 mm 7 m/S 750 mmHg 90%
    10:00 -11°C° 0 mm 8 m/S 751 mmHg 88%
    11:00 -12°C° 0.1 mm 8 m/S 751 mmHg 87%
    12:00 -13°C° 0.1 mm 7 m/S 752 mmHg 85%
    13:00 -15°C° 0.1 mm 7 m/S 752 mmHg 84%
    14:00 -17°C° 0 mm 7 m/S 753 mmHg 83%
    15:00 -18°C° 0 mm 7 m/S 753 mmHg 81%
    16:00 -18°C° 0 mm 7 m/S 754 mmHg 80%
    17:00 -19°C° 0 mm 7 m/S 755 mmHg 80%
    18:00 -20°C° 0 mm 7 m/S 755 mmHg 80%
    19:00 -21°C° 0 mm 6 m/S 756 mmHg 79%
    20:00 -22°C° 0 mm 6 m/S 756 mmHg 80%
    21:00 -22°C° 0 mm 6 m/S 756 mmHg 81%
    22:00 -23°C° 0 mm 6 m/S 757 mmHg 82%
    23:00 -23°C° 0 mm 6 m/S 757 mmHg 83%

    Morgen, 20 November, Mittwoch

    Zeit Temperatur Niederschläge Wind Luftdruck Luftfeuchtigkeit
    00:00 -24°C° 0 mm 5 m/S 757 mmHg 83%
    01:00 -24°C° 0 mm 5 m/S 757 mmHg 84%
    02:00 -25°C° 0 mm 5 m/S 758 mmHg 84%
    03:00 -25°C° 0 mm 5 m/S 758 mmHg 85%
    04:00 -25°C° 0 mm 5 m/S 759 mmHg 85%
    05:00 -25°C° 0 mm 5 m/S 759 mmHg 85%
    06:00 -26°C° 0 mm 5 m/S 759 mmHg 85%
    07:00 -26°C° 0 mm 5 m/S 759 mmHg 84%
    08:00 -25°C° 0 mm 5 m/S 760 mmHg 83%
    09:00 -25°C° 0 mm 5 m/S 760 mmHg 83%
    10:00 -25°C° 0 mm 5 m/S 761 mmHg 82%
    11:00 -25°C° 0 mm 5 m/S 761 mmHg 81%
    12:00 -24°C° 0 mm 5 m/S 761 mmHg 81%
    13:00 -24°C° 0 mm 5 m/S 761 mmHg 81%
    14:00 -24°C° 0 mm 5 m/S 761 mmHg 81%
    15:00 -24°C° 0 mm 5 m/S 761 mmHg 82%
    16:00 -25°C° 0 mm 5 m/S 762 mmHg 83%
    17:00 -25°C° 0 mm 5 m/S 762 mmHg 84%
    18:00 -25°C° 0 mm 5 m/S 762 mmHg 85%
    19:00 -25°C° 0 mm 5 m/S 763 mmHg 86%
    20:00 -24°C° 0 mm 4 m/S 763 mmHg 86%
    21:00 -24°C° 0 mm 4 m/S 763 mmHg 87%
    22:00 -24°C° 0 mm 4 m/S 764 mmHg 87%
    23:00 -24°C° 0 mm 4 m/S 764 mmHg 88%

    übermorgen, 21 November, Donnerstag

    Zeit Temperatur Niederschläge Wind Luftdruck Luftfeuchtigkeit
    00:00 -23°C° 0 mm 3 m/S 764 mmHg 89%
    01:00 -23°C° 0 mm 3 m/S 764 mmHg 90%
    02:00 -23°C° 0 mm 3 m/S 764 mmHg 90%
    03:00 -23°C° 0 mm 3 m/S 764 mmHg 90%
    04:00 -23°C° 0 mm 3 m/S 764 mmHg 91%
    05:00 -23°C° 0 mm 3 m/S 764 mmHg 91%
    06:00 -21°C° 0 mm 2 m/S 764 mmHg 91%
    07:00 -21°C° 0 mm 2 m/S 764 mmHg 91%
    08:00 -20°C° 0 mm 2 m/S 764 mmHg 88%
    09:00 -19°C° 0 mm 2 m/S 764 mmHg 85%
    10:00 -19°C° 0 mm 2 m/S 765 mmHg 82%
    11:00 -16°C° 0 mm 1 m/S 764 mmHg 80%
    12:00 -15°C° 0 mm 1 m/S 764 mmHg 78%
    13:00 -14°C° 0 mm 1 m/S 764 mmHg 77%
    14:00 -15°C° 0 mm 1 m/S 763 mmHg 79%
    15:00 -15°C° 0 mm 1 m/S 763 mmHg 82%
    16:00 -15°C° 0 mm 1 m/S 763 mmHg 84%
    17:00 -15°C° 0 mm 1 m/S 763 mmHg 84%
    18:00 -15°C° 0 mm 1 m/S 762 mmHg 83%
    19:00 -15°C° 0 mm 1 m/S 762 mmHg 82%
    20:00 -15°C° 0 mm 1 m/S 762 mmHg 82%
    21:00 -15°C° 0 mm 1 m/S 762 mmHg 82%
    22:00 -14°C° 0 mm 1 m/S 762 mmHg 82%
    23:00 -14°C° 0 mm 1 m/S 761 mmHg 83%

    22 November, Freitag

    Zeit Temperatur Niederschläge Wind Luftdruck Luftfeuchtigkeit
    00:00 -14°C° 0 mm 1 m/S 761 mmHg 84%
    01:00 -14°C° 0 mm 1 m/S 761 mmHg 86%
    02:00 -14°C° 0 mm 1 m/S 760 mmHg 86%
    03:00 -14°C° 0 mm 1 m/S 760 mmHg 86%
    04:00 -15°C° 0 mm 2 m/S 760 mmHg 87%
    05:00 -15°C° 0 mm 2 m/S 760 mmHg 86%
    06:00 -15°C° 0 mm 2 m/S 759 mmHg 86%
    07:00 -15°C° 0 mm 2 m/S 759 mmHg 86%
    08:00 -15°C° 0 mm 2 m/S 759 mmHg 84%
    09:00 -14°C° 0 mm 2 m/S 759 mmHg 82%
    10:00 -11°C° 0 mm 1 m/S 759 mmHg 80%
    11:00 -10°C° 0 mm 1 m/S 759 mmHg 77%
    12:00 -9°C° 0 mm 1 m/S 759 mmHg 74%
    13:00 -8°C° 0 mm 1 m/S 759 mmHg 71%
    14:00 -9°C° 0 mm 1 m/S 758 mmHg 73%
    15:00 -10°C° 0 mm 1 m/S 758 mmHg 76%
    16:00 -10°C° 0 mm 1 m/S 758 mmHg 79%
    17:00 -11°C° 0 mm 1 m/S 758 mmHg 79%
    18:00 -11°C° 0 mm 1 m/S 758 mmHg 79%
    19:00 -11°C° 0 mm 1 m/S 758 mmHg 80%
    20:00 -11°C° 0 mm 0 m/S 758 mmHg 80%
    21:00 -11°C° 0 mm 0 m/S 758 mmHg 80%
    22:00 -11°C° 0 mm 0 m/S 758 mmHg 80%
    23:00 -11°C° 0 mm 0 m/S 757 mmHg 80%

    23 November, Samstag

    Zeit Temperatur Niederschläge Wind Luftdruck Luftfeuchtigkeit
    00:00 -11°C° 0 mm 0 m/S 757 mmHg 79%
    01:00 -11°C° 0 mm 0 m/S 757 mmHg 79%
    02:00 -11°C° 0 mm 0 m/S 757 mmHg 79%
    03:00 -11°C° 0 mm 0 m/S 757 mmHg 79%
    04:00 -11°C° 0 mm 0 m/S 756 mmHg 79%
    05:00 -11°C° 0 mm 0 m/S 756 mmHg 79%
    06:00 -12°C° 0 mm 0 m/S 756 mmHg 79%
    07:00 -12°C° 0 mm 0 m/S 756 mmHg 79%
    08:00 -11°C° 0 mm 0 m/S 756 mmHg 77%
    09:00 -10°C° 0 mm 0 m/S 756 mmHg 75%
    10:00 -9°C° 0 mm 1 m/S 756 mmHg 73%
    11:00 -9°C° 0 mm 1 m/S 755 mmHg 71%
    12:00 -8°C° 0 mm 1 m/S 755 mmHg 70%
    13:00 -7°C° 0 mm 1 m/S 755 mmHg 68%
    14:00 -8°C° 0 mm 1 m/S 754 mmHg 71%
    15:00 -9°C° 0 mm 2 m/S 754 mmHg 74%
    16:00 -10°C° 0 mm 2 m/S 754 mmHg 77%
    17:00 -10°C° 0 mm 2 m/S 753 mmHg 81%
    18:00 -10°C° 0 mm 2 m/S 753 mmHg 84%
    19:00 -10°C° 0 mm 2 m/S 753 mmHg 88%
    20:00 -10°C° 0 mm 2 m/S 753 mmHg 89%
    21:00 -10°C° 0 mm 2 m/S 753 mmHg 91%
    22:00 -10°C° 0 mm 2 m/S 752 mmHg 93%
    23:00 -10°C° 0 mm 2 m/S 752 mmHg 93%

    24 November, Sonntag

    Zeit Temperatur Niederschläge Wind Luftdruck Luftfeuchtigkeit
    00:00 -10°C° 0 mm 2 m/S 752 mmHg 93%
    01:00 -10°C° 0 mm 2 m/S 752 mmHg 93%
    02:00 -12°C° 0 mm 2 m/S 752 mmHg 93%
    03:00 -12°C° 0 mm 2 m/S 752 mmHg 92%
    04:00 -12°C° 0 mm 2 m/S 752 mmHg 91%
    05:00 -12°C° 0 mm 2 m/S 752 mmHg 91%
    06:00 -12°C° 0 mm 2 m/S 752 mmHg 90%
    07:00 -12°C° 0 mm 2 m/S 752 mmHg 90%
    08:00 -10°C° 0 mm 2 m/S 753 mmHg 89%
    09:00 -9°C° 0 mm 1 m/S 753 mmHg 87%
    10:00 -8°C° 0 mm 1 m/S 753 mmHg 86%
    11:00 -7°C° 0 mm 1 m/S 753 mmHg 85%
    12:00 -6°C° 0 mm 1 m/S 753 mmHg 84%
    13:00 -6°C° 0 mm 2 m/S 753 mmHg 83%
    14:00 -7°C° 0 mm 2 m/S 753 mmHg 85%
    15:00 -7°C° 0 mm 2 m/S 752 mmHg 87%
    16:00 -9°C° 0 mm 3 m/S 752 mmHg 89%
    17:00 -9°C° 0 mm 3 m/S 752 mmHg 90%
    18:00 -9°C° 0 mm 3 m/S 752 mmHg 91%
    19:00 -11°C° 0 mm 4 m/S 752 mmHg 92%
    20:00 -11°C° 0 mm 4 m/S 752 mmHg 92%
    21:00 -11°C° 0 mm 4 m/S 752 mmHg 93%
    22:00 -11°C° 0 mm 4 m/S 751 mmHg 93%
    23:00 -11°C° 0 mm 4 m/S 751 mmHg 94%
    Mehr zeigen